User: anonymous   Login
Location: Bangkok
(13.7500°N, 100.5170°E)
Time: 21:11:23
(UTC+07:00)
Language:

ERBS - Orbit

View from above orbital plane
View from above orbital plane
View from above satellite
View from above satellite

Ground track
Ground track

The orbit data is extracted from the following two-line orbital elements,

1 15354U 84108B   15210.18739731  .00003803  00000-0  11535-3 0  9999
2 15354 057.0092 211.3693 0008642 223.1566 136.8809 15.36545256692018
Epoch (UTC): 29 July 2015 04:29:51
Eccentricity: 0.0008642
inclination: 57.0092°
perigee height: 450 km
apogee height: 462 km
right ascension of ascending node: 211.3693°
argument of perigee: 223.1566°
revolutions per day: 15.36545256
mean anomaly at epoch: 136.8809°
orbit number at epoch: 69201

The dashed part of the orbit path shows where the satellite is in the earth's shadow,  

DLR